Temp
-11 -12 -12 -12 -12 -12 -12 -12 -12 -12 -13 -13 -14 -14 -14 -14 -14 -14 -14 -14 -14 -15 -14 -15 -14 -14 -14 -13 -13 -13 -13 -13
-12 -12 -12 -12 -12 -13 -13 -13 -13 -13 -13 -13 -13 -14 -14 -14 -14 -14 -14 -14 -15 -15 -14 -15 -15 -14 -14 -14 -14 -13 -13 -14
-12 -12 -12 -12 -12 -13 -13 -13 -13 -13 -14 -14 -14 -14 -14 -14 -14 -15 -14 -14 -14 -14 -15 -15 -15 -14 -15 -14 -14 -14 -14 -14
-13 -13 -13 -13 -13 -13 -13 -13 -14 -14 -14 -14 -14 -14 -14 -14 -14 -14 -13 -14 -15 -14 -15 -15 -14 -15 -14 -14 -14 -14 -14 -14
-14 -14 -14 -14 -14 -14 -14 -14 -15 -14 -14 -14 -14 -14 -14 -14 -14 -14 -14 -14 -14 -14 -15 -15 -15 -15 -15 -15 -14 -14 -14 -14
-15 -15 -15 -15 -15 -15 -15 -15 -15 -15 -15 -15 -14 -14 -14 -14 -14 -14 -14 -14 -14 -15 -15 -15 -15 -15 -15 -15 -15 -14 -14 -14
-16 -16 -16 -16 -16 -15 -15 -15 -15 -15 -15 -15 -14 -14 -14 -14 -14 -14 -14 -14 -14 -15 -15 -15 -15 -15 -15 -15 -15 -14 -14 -14
-17 -17 -17 -16 -16 -16 -16 -15 -15 -15 -15 -15 -15 -15 -15 -14 -14 -15 -15 -14 -14 -15 -15 -15 -15 -15 -15 -15 -15 -14 -14 -14
-17 -17 -17 -17 -16 -16 -16 -16 -15 -15 -15 -15 -15 -15 -15 -15 -15 -15 -15 -15 -15 -15 -15 -15 -16 -15 -16 -16 -15 -14 -14 -13
-18 -17 -17 -17 -16 -16 -16 -16 -15 -15 -15 -15 -15 -15 -16 -16 -16 -16 -15 -15 -15 -16 -16 -16 -16 -15 -16 -16 -15 -14 -14 -12
-18 -17 -17 -17 -17 -16 -16 -16 -16 -15 -15 -15 -16 -16 -16 -17 -18 -17 -17 -16 -15 -16 -16 -16 -16 -16 -16 -15 -15 -15 -14 -13
-18 -17 -17 -17 -17 -17 -17 -16 -16 -16 -16 -16 -16 -16 -16 -16 -17 -17 -17 -17 -16 -16 -17 -17 -16 -16 -16 -16 -15 -15 -14 -14
-18 -18 -18 -18 -18 -17 -17 -17 -16 -16 -16 -16 -16 -16 -16 -16 -16 -16 -17 -17 -17 -17 -17 -17 -16 -16 -16 -16 -15 -15 -15 -15
-18 -18 -18 -18 -18 -18 -18 -17 -17 -17 -16 -16 -16 -16 -16 -16 -16 -16 -15 -16 -17 -17 -17 -17 -17 -17 -17 -16 -16 -15 -14 -15
-19 -19 -19 -19 -19 -19 -18 -17 -17 -17 -16 -17 -16 -16 -16 -16 -16 -16 -15 -15 -15 -16 -17 -17 -17 -17 -17 -17 -16 -15 -15 -15
-20 -20 -21 -20 -19 -19 -19 -18 -18 -17 -16 -16 -16 -15 -16 -16 -16 -16 -16 -16 -16 -16 -16 -17 -17 -17 -16 -16 -16 -15 -15 -15
-22 -22 -22 -21 -20 -19 -19 -18 -18 -17 -17 -17 -16 -16 -16 -15 -16 -16 -16 -16 -16 -15 -16 -17 -17 -16 -16 -16 -15 -15 -15 -15
-22 -21 -21 -20 -20 -20 -20 -19 -18 -18 -18 -17 -17 -17 -16 -16 -16 -16 -15 -15 -16 -16 -16 -16 -16 -16 -16 -15 -15 -15 -15 -15
-22 -21 -21 -21 -21 -20 -19 -18 -18 -18 -18 -18 -17 -16 -16 -16 -15 -16 -15 -15 -15 -15 -15 -15 -15 -15 -15 -15 -15 -15 -15 -15
Height
5710 5713 5714 5716 5716 5716 5717 5718 5721 5723 5725 5728 5730 5730 5732 5734 5739 5740 5744 5747 5749 5750 5753 5754 5754 5757 5757 5758 5759 5760 5763 5763
5701 5702 5703 5704 5706 5707 5707 5708 5708 5709 5712 5714 5716 5718 5720 5722 5725 5729 5730 5733 5737 5740 5743 5746 5745 5748 5749 5750 5751 5752 5755 5756
5691 5691 5691 5692 5693 5695 5696 5697 5697 5698 5699 5699 5702 5705 5709 5711 5713 5715 5717 5721 5727 5731 5733 5735 5736 5738 5740 5741 5744 5745 5745 5748
5679 5680 5681 5681 5681 5683 5684 5685 5686 5687 5688 5689 5691 5692 5694 5696 5699 5702 5705 5709 5712 5718 5721 5723 5725 5727 5730 5732 5734 5738 5737 5740
5667 5668 5669 5670 5671 5671 5672 5673 5673 5675 5676 5678 5680 5682 5683 5685 5686 5688 5691 5694 5698 5702 5707 5709 5711 5716 5719 5721 5724 5727 5728 5731
5655 5656 5657 5657 5659 5660 5661 5661 5661 5662 5663 5665 5666 5668 5670 5671 5672 5675 5679 5682 5686 5690 5693 5697 5699 5703 5708 5711 5714 5717 5720 5722
5644 5645 5646 5646 5647 5647 5648 5649 5650 5650 5651 5651 5652 5653 5653 5656 5659 5659 5663 5667 5672 5678 5679 5683 5687 5691 5695 5700 5704 5707 5711 5712
5633 5634 5634 5635 5635 5636 5637 5637 5637 5636 5636 5637 5637 5637 5638 5639 5642 5643 5647 5651 5655 5663 5666 5670 5674 5680 5685 5689 5693 5696 5696 5700
5623 5624 5624 5624 5625 5625 5625 5624 5624 5622 5621 5620 5619 5618 5619 5621 5624 5627 5629 5634 5640 5646 5652 5657 5662 5667 5671 5677 5681 5680 5681 5688
5614 5614 5614 5613 5613 5613 5613 5612 5610 5607 5604 5602 5600 5598 5597 5598 5601 5604 5610 5616 5622 5629 5636 5643 5650 5655 5659 5664 5670 5675 5678 5661
5602 5603 5603 5603 5602 5601 5600 5598 5594 5590 5586 5583 5581 5580 5580 5582 5583 5586 5592 5599 5605 5614 5622 5630 5638 5643 5647 5652 5658 5663 5667 5671
5589 5589 5589 5589 5589 5587 5585 5583 5579 5574 5572 5569 5569 5567 5568 5570 5572 5575 5578 5583 5591 5600 5609 5617 5624 5630 5635 5642 5647 5653 5657 5662
5581 5579 5578 5576 5575 5573 5571 5568 5565 5562 5560 5560 5559 5559 5559 5560 5560 5563 5568 5571 5579 5589 5597 5604 5612 5618 5625 5630 5639 5643 5649 5654
5569 5567 5566 5564 5562 5560 5558 5556 5553 5553 5552 5551 5552 5553 5552 5552 5553 5551 5556 5561 5569 5578 5588 5594 5600 5607 5615 5622 5628 5633 5638 5642
5557 5554 5553 5551 5550 5549 5548 5545 5545 5545 5544 5545 5546 5546 5545 5547 5547 5549 5545 5558 5564 5570 5577 5584 5591 5597 5605 5612 5617 5623 5628 5631
5544 5542 5542 5541 5541 5542 5541 5539 5539 5539 5540 5542 5541 5543 5542 5542 5542 5545 5549 5554 5558 5564 5569 5576 5583 5589 5595 5601 5608 5611 5618 5623
5534 5536 5536 5536 5537 5535 5534 5535 5535 5536 5536 5537 5536 5536 5536 5536 5538 5541 5545 5549 5553 5556 5561 5568 5576 5582 5588 5593 5597 5602 5607 5613
5531 5532 5533 5533 5532 5531 5532 5532 5532 5532 5532 5533 5534 5534 5533 5533 5535 5538 5541 5544 5547 5552 5555 5560 5565 5572 5578 5583 5589 5595 5599 5604
5527 5528 5529 5530 5529 5529 5530 5530 5530 5530 5530 5531 5531 5530 5531 5530 5533 5535 5537 5540 5543 5546 5550 5554 5557 5562 5572 5577 5581 5586 5590 5594
Wind_Speed
47 42 45 46 48 50 50 51 51 52 54 56 57 58 57 56 52 49 47 46 46 46 47 47 51 48 45 43 40 36 29 28
47 45 46 46 46 47 49 51 53 54 56 56 57 57 57 56 55 52 51 50 47 48 49 48 52 49 46 46 44 37 32 30
47 47 44 44 45 46 47 49 51 54 56 58 57 56 56 55 53 54 54 51 47 45 48 49 51 54 48 49 47 39 34 32
47 46 45 44 44 45 46 46 46 49 51 52 53 53 53 52 52 51 51 49 48 44 44 47 53 52 51 51 47 46 38 33
45 44 43 43 43 44 45 45 45 47 47 48 49 49 49 50 52 52 51 52 52 50 48 47 50 51 53 51 48 47 44 36
43 44 44 44 44 44 45 45 47 49 48 50 51 52 54 54 56 56 54 54 52 50 48 47 50 52 53 52 49 48 45 41
43 44 44 44 45 45 45 47 49 50 51 53 55 56 58 59 60 61 61 60 57 49 50 46 48 52 53 52 49 48 49 44
41 41 42 43 44 46 47 48 49 51 53 55 56 58 59 61 61 62 62 62 61 52 49 48 48 49 49 51 52 49 56 46
38 40 41 43 43 44 45 46 48 52 55 57 59 62 64 64 64 65 64 63 61 56 51 49 49 47 48 50 52 50 47 41
37 39 40 42 43 44 45 47 50 54 58 61 63 63 60 60 61 66 68 66 62 57 53 51 49 48 50 49 52 51 46 41
38 39 41 43 45 46 48 49 52 57 58 54 50 51 51 53 48 50 56 59 62 57 52 50 48 48 49 50 51 54 53 51
41 44 45 47 48 49 49 51 54 51 45 45 38 41 43 44 43 47 49 53 57 54 52 50 47 47 49 50 53 52 52 51
45 47 49 49 51 51 51 52 43 44 41 38 32 30 31 38 37 46 49 48 48 47 50 53 50 49 49 51 49 54 50 47
50 52 53 52 53 52 49 42 39 28 30 22 22 27 23 24 24 29 44 48 47 48 49 50 49 47 47 48 48 51 49 50
53 55 53 49 45 39 37 35 31 27 19 15 21 22 20 17 22 20 26 41 42 46 51 49 45 45 44 45 45 45 47 46
48 45 35 36 32 32 32 26 24 23 25 19 16 22 21 14 20 25 27 32 36 44 46 50 51 49 50 47 45 48 47 48
35 26 24 26 27 21 10 16 17 18 20 19 19 15 16 21 17 20 23 30 38 42 45 52 48 46 46 44 46 47 48 46
19 12 9 11 9 7 6 9 13 14 17 19 18 20 14 11 14 16 19 29 23 25 30 37 41 44 44 41 41 44 47 44
11 6 6 6 8 8 7 8 10 13 13 18 12 14 8 6 20 12 17 23 28 28 27 29 35 36 43 43 48 46 44 45
Wind_Direction
266 262 260 256 256 257 259 259 258 257 258 258 259 261 263 266 265 266 265 263 261 259 260 263 266 269 270 267 266 268 269 267
267 264 262 261 259 257 258 258 260 261 260 259 260 260 262 263 263 263 263 261 259 257 257 257 263 265 267 265 263 264 267 263
270 268 266 264 262 261 258 256 257 258 260 262 263 262 261 261 263 262 261 261 260 258 257 255 258 262 263 265 264 258 261 259
269 268 268 267 266 264 263 260 256 254 254 256 258 261 263 263 262 262 263 263 262 256 256 253 254 257 260 262 262 261 257 253
267 266 265 263 263 262 262 262 260 259 257 257 257 257 258 259 260 260 260 260 259 258 250 249 250 250 253 256 257 257 256 249
263 264 264 263 261 260 260 262 263 263 261 261 260 260 260 258 259 259 258 257 256 254 251 248 248 247 249 252 253 252 253 252
261 262 264 265 266 265 264 265 266 265 265 264 263 263 261 260 259 257 255 255 253 249 250 246 245 245 245 248 249 249 253 252
259 261 262 264 266 268 269 270 271 271 270 268 265 263 261 259 257 257 256 256 255 252 246 243 243 243 246 247 250 247 243 245
261 263 265 267 268 271 273 275 275 274 272 270 268 265 262 259 255 252 252 252 251 248 246 242 239 238 241 242 246 249 252 251
262 264 266 268 271 273 275 277 277 275 272 271 271 267 262 258 253 246 244 246 245 240 240 239 236 236 239 241 243 242 241 247
268 268 270 274 276 278 279 279 278 280 279 276 271 266 260 257 251 244 241 240 240 237 235 238 236 234 236 239 242 243 241 241
272 276 278 280 282 282 283 282 281 280 273 273 266 262 260 257 252 241 232 230 232 231 230 233 233 233 237 239 242 247 244 245
276 278 280 284 286 285 282 283 276 272 270 265 261 255 255 254 257 242 233 226 226 227 225 228 228 229 233 236 240 246 248 248
281 281 282 283 282 281 280 276 273 270 256 254 248 248 261 262 260 248 238 224 218 220 223 227 226 229 231 235 236 241 243 247
283 283 283 279 276 272 270 270 262 249 247 251 261 245 230 286 283 264 232 223 220 220 221 227 231 229 231 233 237 239 242 245
281 279 275 267 262 268 269 237 237 237 239 261 247 262 271 285 260 261 249 241 229 226 225 226 228 230 229 229 235 238 239 244
275 272 255 265 267 241 257 230 232 244 241 242 247 238 281 257 245 238 248 238 242 242 229 227 231 231 230 232 236 238 239 241
269 246 241 227 282 243 258 259 242 248 247 244 253 270 268 242 217 230 251 217 226 241 241 243 234 233 234 234 234 234 238 237
208 195 217 246 252 266 250 267 248 243 242 252 269 265 222 256 193 214 219 215 243 247 249 236 230 234 233 238 243 238 238 241